EHI
87 86 83 81 82 84 87 90 92 88 82 76 71 63 45 20 10 19 25 18 6 3 3 3 3 3 2 2 1 0 1 2 2 3 2 2 3 8 24 44 57 58 57
78 74 68 64 66 73 77 80 82 75 67 65 59 52 40 20 10 17 27 25 14 7 5 4 4 2 1 1 0 0 0 1 1 2 1 1 2 5 15 34 52 62 64
59 52 42 38 41 49 58 66 71 62 53 48 38 33 33 20 12 21 37 45 33 18 11 7 3 1 0 0 0 0 0 0 0 0 0 0 0 1 6 17 33 53 66
33 27 21 19 20 24 38 56 64 59 51 43 36 34 32 23 23 36 54 60 47 27 18 11 5 1 0 0 0 0 0 0 0 0 0 0 0 0 2 5 13 31 48
12 10 8 7 6 9 23 43 55 58 57 55 58 58 49 39 43 56 67 64 48 33 25 20 13 6 1 0 0 0 0 0 0 0 0 0 0 0 0 1 3 12 22
3 2 2 1 1 4 13 27 39 47 54 61 71 78 74 66 67 70 69 60 48 40 36 33 29 18 6 1 0 0 0 0 0 0 0 0 0 0 0 0 0 4 8
1 0 0 0 0 1 6 13 21 29 37 46 59 72 79 82 83 81 73 62 54 51 51 49 43 29 14 4 0 0 0 0 0 0 1 1 0 0 0 0 0 2 6
0 0 0 0 0 1 2 5 8 13 18 25 34 47 59 69 78 84 83 78 71 68 67 62 49 36 21 9 3 1 0 0 0 0 1 1 1 1 1 0 0 2 4
0 0 0 0 0 0 1 1 2 3 6 9 13 21 29 39 51 65 76 81 82 80 76 68 54 40 27 17 9 3 0 0 0 0 1 1 1 1 1 0 0 1 2
0 0 0 0 0 0 0 0 0 0 1 1 3 5 9 14 22 33 45 56 67 74 75 69 57 43 30 22 14 6 1 0 0 0 0 0 0 0 0 0 0 0 1
0 0 0 0 0 0 0 0 0 0 0 0 0 0 1 3 5 10 16 23 35 47 56 60 54 40 27 22 17 8 2 0 0 0 0 0 0 0 0 0 0 0 0
0 0 0 0 0 0 0 0 0 0 0 0 0 0 0 0 0 1 2 5 10 17 26 36 39 31 23 19 14 5 1 0 0 0 0 0 0 0 0 0 0 0 0
0 0 0 0 0 0 0 0 0 0 0 0 0 0 0 0 0 0 0 1 1 3 7 14 19 21 21 16 8 2 1 0 0 0 0 0 0 0 0 0 0 0 0
0 0 0 0 0 0 0 0 0 0 0 0 0 0 0 0 0 0 0 0 0 1 2 4 8 13 15 11 4 1 2 2 1 0 0 0 0 0 0 0 0 0 0
0 0 0 0 0 0 0 0 0 0 0 0 0 0 0 0 0 0 0 0 0 0 0 1 3 5 6 4 1 0 2 4 3 1 0 0 0 0 0 0 0 0 0
0 0 0 0 0 0 0 0 0 0 0 0 0 0 0 0 0 0 0 0 0 0 0 0 0 1 1 0 0 0 1 4 3 1 0 0 0 0 0 0 0 0 0
0 0 0 0 0 0 0 0 0 0 0 0 0 0 0 0 0 0 0 0 0 0 0 0 0 0 0 0 0 0 1 2 2 1 0 0 0 0 0 0 0 0 0
0 0 0 0 0 0 0 0 0 0 0 0 0 0 0 0 0 0 0 0 0 0 0 0 0 0 0 0 0 0 0 0 0 0 0 0 0 0 0 0 0 0 0
0 0 0 0 0 0 0 0 0 0 0 0 0 0 0 0 0 0 0 0 0 0 0 0 0 0 0 0 0 0 0 0 0 0 0 0 0 0 0 0 0 0 0
0 0 0 0 0 0 0 0 0 0 0 0 0 0 0 0 0 0 0 0 0 0 0 0 0 0 0 0 0 0 0 0 0 0 0 0 0 0 0 0 0 0 0
0 0 0 0 0 1 1 0 0 0 0 0 0 0 0 0 0 0 0 0 0 0 0 0 0 0 0 0 0 0 0 0 0 0 0 0 0 0 0 0 0 0 0
0 0 0 0 0 1 1 0 0 0 0 0 0 0 0 0 0 0 0 0 0 0 0 0 0 0 0 0 0 0 0 0 0 0 0 0 0 0 0 0 0 0 0
0 0 0 0 0 0 0 0 0 0 0 0 0 0 0 0 0 0 0 0 0 0 0 0 0 0 0 0 0 0 0 0 0 0 0 0 0 0 0 0 0 0 0
0 0 0 0 0 0 0 0 0 0 0 0 0 0 0 0 0 0 0 0 0 0 0 0 0 0 0 0 0 0 0 0 0 0 0 0 0 0 0 0 0 0 0
0 0 0 0 0 0 0 0 0 0 0 0 0 0 0 0 0 0 0 0 0 0 0 0 0 0 0 0 0 0 0 0 0 0 0 0 0 0 0 0 0 0 0
0 0 0 0 0 0 0 0 0 0 0 0 0 0 0 0 0 0 0 0 0 0 0 0 0 0 0 0 0 0 0 0 0 0 0 0 0 0 0 0 0 0 0
Wind_Speed
10 7 6 5 6 7 8 8 8 7 5 3 3 3 3 1 1 2 4 3 1 1 1 2 3 3 3 4 5 4 6 5 5 5 6 7 9 9 8 9 9 10 10
2 1 3 4 4 5 7 5 8 7 5 4 3 2 2 0 0 1 3 3 2 1 2 2 2 4 4 5 5 4 4 5 5 5 6 6 6 6 9 8 9 10 8
6 9 11 13 11 8 6 3 5 5 3 5 3 2 3 2 2 2 3 4 3 1 1 1 2 3 4 4 4 4 5 5 5 5 4 4 5 6 6 6 5 6 7
16 13 14 14 13 11 5 5 4 3 1 1 2 2 2 2 1 1 2 4 4 3 3 2 3 3 3 5 5 4 4 5 5 5 4 6 7 6 7 7 7 6 5
19 16 15 13 12 11 11 11 9 6 5 4 4 4 4 4 2 1 1 3 4 5 5 5 3 3 3 5 4 4 5 4 5 5 5 6 6 7 6 8 7 6 4
17 15 14 12 11 12 12 11 12 12 10 8 7 6 6 6 6 5 4 3 3 4 7 6 5 3 3 4 4 4 6 5 6 5 5 6 6 6 6 6 6 6 5
15 15 15 13 12 13 12 13 14 13 12 12 11 9 8 7 7 6 6 5 4 3 4 5 3 3 3 4 5 5 6 6 6 6 5 5 6 6 6 6 6 6 4
13 13 13 11 11 11 11 11 11 10 11 11 11 10 10 7 6 7 7 6 3 3 0 2 3 4 5 5 5 5 5 5 5 7 6 5 6 6 6 6 6 6 4
11 11 10 9 9 8 8 9 8 8 8 9 8 8 9 9 9 9 8 7 6 6 4 2 3 4 5 5 5 5 5 5 5 6 6 5 5 6 6 6 6 5 5
10 10 9 8 8 7 6 6 6 6 6 7 7 7 7 7 7 7 8 8 9 8 8 7 5 5 6 6 6 5 6 5 5 5 6 6 5 5 5 5 5 6 6
11 10 10 9 8 8 7 6 6 6 6 6 6 6 6 7 7 6 5 6 7 8 8 8 7 7 7 7 6 6 6 6 5 5 5 6 6 5 5 5 5 5 5
11 12 12 10 9 10 9 9 8 7 7 6 6 7 7 7 8 8 7 7 7 6 7 8 8 9 9 8 7 7 6 5 5 5 5 5 5 6 5 5 5 5 5
13 13 11 10 9 9 9 9 9 9 8 7 7 7 8 8 8 8 8 9 8 8 7 7 8 9 9 9 8 7 6 5 4 4 4 4 5 6 5 5 4 3 4
15 14 11 9 8 8 8 9 10 10 10 9 9 9 9 9 9 9 9 10 10 10 9 7 7 8 10 10 9 8 6 5 4 3 2 3 4 5 5 4 2 2 5
18 14 12 11 10 10 9 9 9 9 9 9 10 10 10 9 10 10 10 10 10 12 10 9 8 8 9 10 9 8 8 5 4 2 1 2 3 3 3 1 1 5 7
16 15 15 14 12 11 11 11 10 9 9 9 10 10 10 10 10 10 10 10 10 10 10 9 9 9 10 10 10 8 6 4 3 3 3 4 3 3 6 7 7 7 9
18 18 17 14 11 12 11 11 10 10 10 10 11 10 10 10 10 12 11 10 10 10 10 10 9 9 9 10 9 9 6 5 4 5 5 4 5 4 5 8 11 11 11
21 18 17 17 16 14 14 12 14 12 11 11 12 11 10 11 10 10 9 8 7 8 8 9 9 8 9 9 8 9 7 6 6 6 6 6 7 6 7 7 8 8 8
18 16 18 19 17 16 15 13 13 13 14 14 13 13 12 12 10 10 9 7 7 7 8 9 10 9 8 8 8 9 6 7 7 7 8 9 9 10 10 9 10 10 8
18 17 19 18 16 14 14 14 15 15 15 15 14 13 13 13 12 11 9 9 7 8 9 10 10 9 6 6 8 9 6 7 6 6 8 11 12 12 10 9 10 11 9
20 18 17 15 12 11 11 13 15 15 15 15 15 14 13 13 13 11 9 9 9 9 9 9 9 8 7 7 9 10 6 5 6 7 8 8 15 13 10 9 8 11 11
22 21 16 13 11 11 11 13 14 15 15 15 16 15 13 14 14 10 9 8 8 8 9 9 10 8 6 7 9 11 10 5 3 5 8 10 15 13 11 8 12 15 11
20 18 17 15 13 12 11 15 15 15 16 16 16 15 15 13 12 11 10 8 7 7 8 8 8 7 5 6 9 10 9 6 3 3 9 16 16 14 9 12 15 12 6
20 18 19 19 17 16 15 15 16 15 16 16 15 14 13 12 11 9 8 8 7 8 8 8 6 4 3 4 5 5 5 5 3 3 11 17 15 9 11 11 9 6 4
19 19 19 20 21 18 17 17 16 15 16 15 14 13 12 11 10 9 8 9 8 7 6 5 4 3 3 5 7 7 6 4 4 6 8 9 8 8 8 7 6 5 5
21 21 21 21 21 20 19 17 15 14 14 12 12 10 8 8 8 8 8 10 10 8 7 5 3 2 3 6 8 8 8 8 8 7 8 10 10 10 9 8 7 5 5
Wind_Direction
205 191 187 172 150 141 132 144 149 142 158 162 168 165 153 182 183 165 124 112 75 15 26 305 337 317 301 322 322 312 305 296 285 279 275 259 251 244 237 233 234 234 231
197 93 58 22 49 93 100 122 129 145 170 133 114 122 112 244 232 98 131 162 190 192 283 3 333 320 328 307 288 290 288 291 295 296 296 290 278 264 253 230 224 226 226
38 41 36 25 18 48 84 120 131 139 158 135 174 171 148 210 229 190 182 164 159 183 259 309 297 313 303 298 323 311 295 294 296 286 285 294 290 307 298 297 266 230 216
51 49 50 34 21 14 22 42 67 98 97 141 267 271 246 243 255 216 182 149 165 198 204 224 256 278 290 297 293 314 329 308 296 291 279 274 286 293 300 304 306 289 243
51 45 53 57 45 27 16 26 21 27 16 348 326 318 297 289 284 279 163 169 201 201 201 204 213 244 266 278 296 302 288 282 283 288 292 291 287 274 270 283 293 303 296
57 53 51 51 44 37 25 23 25 24 13 2 345 324 308 306 308 310 300 261 231 207 199 194 191 217 251 278 285 281 279 270 270 275 278 278 280 283 276 272 279 282 283
54 52 48 45 42 38 29 27 26 25 15 12 3 355 343 322 300 286 274 257 249 233 197 185 173 221 254 265 269 271 274 276 275 271 267 269 269 270 273 274 274 274 278
50 50 48 45 40 36 30 27 23 21 17 17 9 11 6 352 338 330 317 304 296 298 352 163 196 220 241 259 265 274 275 277 281 281 276 270 269 267 265 262 266 273 268
38 37 37 36 32 28 28 19 13 10 8 9 2 11 10 2 353 347 341 333 328 314 311 271 233 232 240 249 259 262 269 273 275 281 285 282 275 267 261 256 246 242 251
14 14 13 13 8 1 5 2 358 351 348 349 348 347 349 346 345 347 350 346 338 332 322 305 283 260 248 245 247 258 263 269 274 275 275 277 278 276 270 258 248 231 226
353 349 345 344 338 336 339 343 342 336 333 331 330 327 325 325 324 321 331 336 336 333 321 306 292 278 263 252 245 249 262 269 277 286 293 297 296 287 279 265 248 233 213
334 330 328 327 325 327 328 326 324 319 315 314 316 316 315 312 310 310 316 317 316 319 320 313 299 284 275 263 252 252 263 272 280 291 301 306 308 309 294 275 254 232 204
323 318 314 313 312 312 308 302 296 292 287 286 284 285 288 292 293 296 299 300 301 301 305 310 307 298 287 277 267 256 253 260 272 287 300 309 314 313 305 289 264 227 189
316 312 312 315 315 307 298 291 286 280 276 266 260 259 261 264 268 273 277 280 283 286 287 290 297 301 296 283 272 264 253 251 260 273 296 316 322 317 306 287 254 171 139
315 318 325 326 320 312 302 296 291 286 281 274 267 261 255 253 256 259 263 267 270 274 276 280 285 291 291 281 277 267 253 235 233 226 183 49 35 9 346 314 160 142 133
322 330 325 319 315 310 305 300 294 290 283 277 274 268 261 258 257 256 255 257 260 263 266 266 271 277 281 298 302 282 266 245 219 200 160 138 112 80 71 75 87 118 132
328 322 317 313 306 303 297 293 295 296 294 290 286 279 271 266 261 264 261 254 254 254 257 259 259 261 267 268 263 264 262 240 214 193 175 172 137 135 112 93 86 88 102
320 315 312 308 303 300 299 297 297 295 293 291 291 289 285 281 274 265 262 260 261 262 263 264 263 260 265 257 243 243 245 239 217 190 171 151 150 153 139 123 107 101 100
312 310 307 303 300 297 296 294 293 293 291 291 288 288 285 283 279 274 268 265 261 262 262 264 259 254 254 245 232 223 234 227 213 189 169 157 153 154 149 130 117 109 103
309 303 300 297 294 294 295 293 293 292 290 290 288 287 282 279 277 275 273 272 266 264 263 260 258 254 249 227 216 211 231 225 203 182 165 160 151 154 150 139 132 127 127
305 302 298 295 292 291 290 290 291 289 289 289 287 284 280 277 274 269 265 264 262 263 263 265 265 256 242 220 206 202 220 234 201 176 164 153 150 150 148 145 136 138 136
306 306 301 296 293 295 296 294 291 291 290 288 284 281 276 275 274 267 265 262 257 258 260 257 256 254 232 210 200 198 207 232 245 190 164 153 154 148 147 144 143 147 144
309 309 309 308 307 308 303 297 296 296 292 286 281 278 276 271 267 264 264 261 251 248 252 252 245 240 223 191 190 193 195 207 239 236 160 149 149 143 143 149 154 158 158
319 320 319 314 312 310 305 298 296 291 285 280 279 276 273 268 262 254 252 250 244 243 246 250 253 238 202 182 174 173 168 155 171 170 146 140 145 143 136 148 162 177 171
325 325 320 314 310 307 300 295 291 287 282 279 276 274 268 263 259 252 245 243 239 236 239 244 241 232 212 187 176 170 171 152 141 148 151 146 148 146 147 160 176 183 156
326 321 316 310 306 303 297 293 288 283 280 279 275 269 263 258 252 248 248 232 227 217 203 197 186 148 135 147 168 166 153 137 150 172 163 156 156 155 158 167 170 165 146